Location: Dampvalley
(47.9094°N, 6.1967°E)
Time: 15:21:38
(UTC+00:00)

Cosmos 1842 Rocket - Pass Details

Date: 05 March 2021
Orbit: 606 x 633 km, 82.5° (Epoch: 15 April)

Event Time Altitude Azimuth Distance (km) Brightness Sun altitude
Exits shadow 04:14:45 44° 288° (WNW) 849 3.8 -19.7°
Drops below altitude 10° 04:18:50 10° 358° (N) 1,970 6.3 -19.1°
Sets 04:21:08 0° 5° (N) 2,878 7.2 -18.7°
